Location: Ostrava
(49.8330°N, 18.2830°E)
Time: 13:59:50
(UTC+02:00)

Lacrosse 5 - Visible Passes

Search period start: 28 March 2017 00:00
Search period end: 07 April 2017 00:00
Orbit: 716 x 723 km, 57.0° (Epoch: 26 March)

Date Brightness Start Highest point End Pass type
(mag) Time Alt. Az. Time Alt. Az. Time Alt. Az.
28 Mar 2.5 20:55:43 10° W 21:00:42 55° NNW 21:05:42 10° NE visible
28 Mar 3.1 22:39:46 10° WNW 22:44:28 36° N 22:45:10 35° NNE visible
29 Mar 4.3 00:23:14 10° NW 00:24:22 17° NW 00:24:22 17° NW visible
29 Mar 2.1 20:02:27 10° WSW 20:07:32 74° NNW 20:12:38 10° NE visible
29 Mar 3.1 21:46:22 10° WNW 21:51:06 38° N 21:54:08 20° NE visible
29 Mar 3.4 23:30:07 10° WNW 23:33:21 33° NNW 23:33:21 33° NNW visible
30 Mar 2.9 20:52:56 10° W 20:57:47 44° NNW 21:02:39 10° ENE visible
30 Mar 3.0 22:36:54 10° WNW 22:41:39 38° N 22:42:16 37° NNE visible
31 Mar 4.2 00:20:09 10° NW 00:21:28 18° NW 00:21:28 18° NW visible
31 Mar 2.6 19:59:32 10° WSW 20:04:31 55° NNW 20:09:31 10° NE visible
31 Mar 3.1 21:43:35 10° WNW 21:48:17 36° N 21:51:07 21° NE visible
31 Mar 3.2 23:27:04 10° NW 23:30:20 36° NNW 23:30:20 36° NNW visible
01 Apr 3.1 20:50:11 10° WNW 20:54:56 38° N 20:59:41 10° ENE visible
01 Apr 2.7 22:33:56 10° WNW 22:38:48 43° NNE 22:39:10 42° NNE visible
02 Apr 4.1 00:17:03 10° WNW 00:18:22 18° WNW 00:18:22 18° WNW visible
02 Apr 2.9 19:56:45 10° W 20:01:36 44° NNW 20:06:28 10° ENE visible
02 Apr 3.0 21:40:44 10° WNW 21:45:28 38° N 21:48:00 23° ENE visible
02 Apr 3.1 23:23:58 10° NW 23:27:12 39° NW 23:27:12 39° NW visible
03 Apr 3.1 20:47:24 10° WNW 20:52:07 36° N 20:56:49 10° ENE visible
03 Apr 2.3 22:30:54 10° NW 22:35:53 54° NNE 22:36:01 54° NNE visible
04 Apr 4.1 00:14:01 10° WNW 00:15:14 17° WNW 00:15:14 17° WNW visible
04 Apr 3.1 19:54:01 10° WNW 19:58:45 38° N 20:03:30 10° ENE visible
04 Apr 2.7 21:37:46 10° WNW 21:42:37 43° NNE 21:44:50 27° ENE visible
04 Apr 3.0 23:20:52 10° WNW 23:24:03 39° WNW 23:24:03 39° WNW visible
05 Apr 3.0 20:44:33 10° WNW 20:49:18 38° N 20:53:40 12° ENE visible
05 Apr 1.9 22:27:48 10° NW 22:32:52 73° NNE 22:32:52 73° NNE visible
06 Apr 4.3 00:11:08 10° WNW 00:12:05 15° WNW 00:12:05 15° WNW visible
06 Apr 3.1 19:51:14 10° WNW 19:55:56 36° N 20:00:38 10° ENE visible
06 Apr 2.3 21:34:43 10° NW 21:39:42 54° NNE 21:41:43 33° E visible
06 Apr 3.1 23:17:50 10° WNW 23:20:55 34° W 23:20:55 34° W visible
